SWR9TC LSZH-EGCC

Flight info

Callsign SWR9TC
Flight time N/A
Altitude 36000
Route VEBIT T10 TORPA DCT REKLA DCT RLP DCT ROTSI DCT KOTUN DCT AMAXA DCT VESAN DCT RATUK DCT SOVAT L613 SANDY UN57 WELIN T420 ELVOS
Aircraft B77W/H-SDE1E2E3FGHIJ2J3J4J5M1RWXY/LB1D1

Departure

Time 2026-04-30 12:25
Airport Zürich Airport (LSZH)

Arrival

Time N/A
Airport Manchester Airport (EGCC)
Time Latitude Longitude Altitude Speed Heading
2026-04-30 12:03 47.46193 8.55283 1391 ft 0 kts 186°
2026-04-30 12:15 47.46194 8.55283 1391 ft 1 kts 186°
2026-04-30 12:15 47.46209 8.55287 1391 ft 2 kts 197°
2026-04-30 12:16 47.46222 8.55295 1391 ft 2 kts 210°
2026-04-30 12:16 47.46234 8.55308 1391 ft 2 kts 221°
2026-04-30 12:16 47.46245 8.55323 1391 ft 2 kts 233°
2026-04-30 12:16 47.46253 8.55342 1391 ft 2 kts 244°
2026-04-30 12:17 47.46261 8.55384 1391 ft 2 kts 266°
2026-04-30 12:17 47.46261 8.55402 1391 ft 0 kts 276°
2026-04-30 12:17 47.46261 8.55405 1391 ft 0 kts 277°
2026-04-30 12:20 47.46262 8.55389 1391 ft 4 kts 277°
2026-04-30 12:20 47.46267 8.55312 1391 ft 10 kts 275°
2026-04-30 12:20 47.46276 8.55175 1391 ft 16 kts 277°
2026-04-30 12:21 47.46289 8.55006 1391 ft 15 kts 276°
2026-04-30 12:21 47.46300 8.54844 1389 ft 15 kts 276°
2026-04-30 12:21 47.46344 8.54720 1389 ft 13 kts 323°
2026-04-30 12:21 47.46423 8.54660 1389 ft 13 kts 336°
2026-04-30 12:22 47.46529 8.54589 1387 ft 19 kts 336°
2026-04-30 12:22 47.46671 8.54492 1387 ft 25 kts 335°
2026-04-30 12:22 47.46848 8.54382 1387 ft 30 kts 336°
2026-04-30 12:22 47.47052 8.54244 1387 ft 34 kts 336°
2026-04-30 12:23 47.47272 8.54091 1387 ft 33 kts 335°
2026-04-30 12:23 47.47472 8.53956 1390 ft 27 kts 335°
2026-04-30 12:23 47.47592 8.53825 1392 ft 19 kts 292°
2026-04-30 12:23 47.47566 8.53659 1393 ft 16 kts 218°
2026-04-30 12:24 47.47460 8.53667 1393 ft 20 kts 154°
2026-04-30 12:24 47.47203 8.53848 1387 ft 72 kts 155°
2026-04-30 12:24 47.46533 8.54308 1388 ft 136 kts 155°
2026-04-30 12:24 47.45506 8.55008 1400 ft 187 kts 154°
2026-04-30 12:25 47.44257 8.55867 1770 ft 204 kts 150°
2026-04-30 12:25 47.43019 8.56841 2565 ft 202 kts 141°
2026-04-30 12:25 47.42068 8.58386 2844 ft 210 kts 112°
2026-04-30 12:25 47.41824 8.60472 3256 ft 210 kts 80°
2026-04-30 12:26 47.42376 8.62411 3768 ft 209 kts 50°
2026-04-30 12:26 47.43549 8.63629 4287 ft 211 kts 20°
2026-04-30 12:26 47.45021 8.63748 4722 ft 221 kts 349°
2026-04-30 12:26 47.46359 8.62603 5141 ft 232 kts 314°
2026-04-30 12:27 47.47033 8.60458 5572 ft 239 kts 276°
2026-04-30 12:27 47.46724 8.58061 6035 ft 241 kts 242°
2026-04-30 12:27 47.45979 8.55872 6531 ft 241 kts 253°
2026-04-30 12:27 47.45660 8.53436 6981 ft 246 kts 265°
2026-04-30 12:28 47.45508 8.50857 7187 ft 264 kts 266°
2026-04-30 12:28 47.45164 8.48111 7413 ft 280 kts 247°
2026-04-30 12:28 47.44182 8.45580 7836 ft 288 kts 236°
2026-04-30 12:28 47.43034 8.43150 8487 ft 289 kts 234°
2026-04-30 12:29 47.41870 8.40714 9059 ft 293 kts 235°
2026-04-30 12:29 47.40714 8.38284 9674 ft 294 kts 235°
2026-04-30 12:29 47.39549 8.35827 10289 ft 295 kts 235°
2026-04-30 12:29 47.38450 8.33186 10571 ft 310 kts 242°
2026-04-30 12:30 47.37421 8.30289 10799 ft 327 kts 242°
2026-04-30 12:30 47.36351 8.27255 11049 ft 343 kts 242°
2026-04-30 12:30 47.35225 8.24083 11329 ft 359 kts 242°
2026-04-30 12:30 47.34047 8.20769 11592 ft 375 kts 242°
2026-04-30 12:31 47.32806 8.17281 11995 ft 388 kts 242°
2026-04-30 12:31 47.31553 8.13765 12609 ft 393 kts 242°
2026-04-30 12:31 47.30293 8.10222 13354 ft 397 kts 243°
2026-04-30 12:31 47.29012 8.06612 14010 ft 404 kts 244°
2026-04-30 12:32 47.27977 8.02754 14798 ft 408 kts 255°
2026-04-30 12:32 47.27444 7.98642 15661 ft 410 kts 266°
2026-04-30 12:32 47.27419 7.94473 16411 ft 413 kts 277°
2026-04-30 12:32 47.27787 7.90279 17214 ft 417 kts 281°
2026-04-30 12:33 47.28210 7.86045 18045 ft 421 kts 281°
2026-04-30 12:33 47.28631 7.81802 18782 ft 427 kts 280°
2026-04-30 12:33 47.29050 7.77500 19500 ft 432 kts 280°
2026-04-30 12:33 47.29474 7.73101 20307 ft 436 kts 281°
2026-04-30 12:34 47.29898 7.68656 21039 ft 441 kts 280°
2026-04-30 12:34 47.30339 7.64181 21774 ft 445 kts 283°
2026-04-30 12:34 47.31108 7.59813 22449 ft 447 kts 290°
2026-04-30 12:34 47.32053 7.55462 23075 ft 453 kts 291°
2026-04-30 12:35 47.33025 7.51028 23722 ft 457 kts 290°
2026-04-30 12:35 47.34001 7.46557 24405 ft 461 kts 290°
2026-04-30 12:35 47.34980 7.42057 24997 ft 466 kts 290°
2026-04-30 12:35 47.35965 7.37515 25609 ft 470 kts 290°
2026-04-30 12:36 47.36969 7.32869 26183 ft 475 kts 289°
2026-04-30 12:36 47.37970 7.28223 26699 ft 481 kts 289°
2026-04-30 12:36 47.38976 7.23543 27272 ft 485 kts 289°
2026-04-30 12:36 47.39986 7.18833 27902 ft 487 kts 289°
2026-04-30 12:37 47.40934 7.13950 28439 ft 493 kts 285°
2026-04-30 12:37 47.41679 7.09044 28912 ft 498 kts 284°
2026-04-30 12:37 47.42423 7.03969 29484 ft 501 kts 284°
2026-04-30 12:37 47.43150 6.98991 30169 ft 501 kts 283°
2026-04-30 12:38 47.43883 6.93955 30952 ft 499 kts 283°
2026-04-30 12:38 47.44603 6.89001 31792 ft 494 kts 284°
2026-04-30 12:38 47.45313 6.84104 32469 ft 492 kts 283°
2026-04-30 12:38 47.46022 6.79204 33045 ft 491 kts 284°
2026-04-30 12:39 47.46739 6.74235 33587 ft 490 kts 284°
2026-04-30 12:39 47.47440 6.69365 34060 ft 490 kts 284°
2026-04-30 12:39 47.48045 6.64415 34176 ft 495 kts 279°
2026-04-30 12:39 47.48431 6.59408 34173 ft 492 kts 278°
2026-04-30 12:40 47.49144 6.49402 34162 ft 491 kts 277°
2026-04-30 12:40 47.49852 6.39368 34154 ft 492 kts 277°
2026-04-30 12:41 47.50557 6.29283 34137 ft 494 kts 277°
2026-04-30 12:41 47.51252 6.19247 34136 ft 493 kts 276°
2026-04-30 12:42 47.51936 6.09232 34125 ft 493 kts 276°
2026-04-30 12:42 47.52614 5.99198 34122 ft 493 kts 276°
2026-04-30 12:43 47.53750 5.89269 34122 ft 491 kts 289°
2026-04-30 12:43 47.56765 5.80242 34116 ft 489 kts 308°
2026-04-30 12:44 47.61160 5.72729 34125 ft 484 kts 315°
2026-04-30 12:44 47.65751 5.65373 34123 ft 486 kts 315°
2026-04-30 12:45 47.70294 5.58048 34129 ft 485 kts 315°
2026-04-30 12:45 47.74862 5.50652 34133 ft 488 kts 315°
2026-04-30 12:46 47.79401 5.43271 34135 ft 487 kts 315°
2026-04-30 12:46 47.83972 5.35816 34129 ft 488 kts 315°
2026-04-30 12:47 47.88519 5.28377 34131 ft 487 kts 314°
2026-04-30 12:47 47.93050 5.20941 34133 ft 489 kts 314°
2026-04-30 12:48 47.97627 5.13408 34135 ft 489 kts 314°
2026-04-30 12:48 48.02153 5.05939 34137 ft 490 kts 314°
2026-04-30 12:49 48.06707 4.98400 34141 ft 491 kts 314°
2026-04-30 12:49 48.11269 4.90827 34126 ft 490 kts 314°
2026-04-30 12:50 48.15819 4.83252 34143 ft 491 kts 314°
2026-04-30 12:50 48.20372 4.75650 34139 ft 491 kts 314°
2026-04-30 12:51 48.24904 4.68062 34149 ft 491 kts 314°
2026-04-30 12:51 48.29448 4.60431 34153 ft 492 kts 314°
2026-04-30 12:52 48.34000 4.52765 34150 ft 492 kts 314°
2026-04-30 12:52 48.38519 4.45132 34154 ft 492 kts 314°
2026-04-30 12:53 48.43066 4.37429 34156 ft 493 kts 314°
2026-04-30 12:53 48.47604 4.29720 34154 ft 494 kts 313°
2026-04-30 12:54 48.52145 4.21982 34152 ft 494 kts 313°
2026-04-30 12:54 48.56679 4.14233 34167 ft 494 kts 313°
2026-04-30 12:55 48.61207 4.06472 34167 ft 493 kts 313°
2026-04-30 12:55 48.65743 3.98675 34166 ft 495 kts 313°
2026-04-30 12:56 48.70254 3.90897 34166 ft 496 kts 313°
2026-04-30 12:56 48.75306 3.83970 34181 ft 491 kts 326°
2026-04-30 12:57 48.80882 3.77885 34167 ft 492 kts 327°
2026-04-30 12:57 48.86387 3.71873 34174 ft 491 kts 327°
2026-04-30 12:58 48.91939 3.65788 34182 ft 492 kts 327°
2026-04-30 12:58 48.97474 3.59702 34176 ft 492 kts 327°
2026-04-30 12:59 49.02988 3.53618 34182 ft 492 kts 327°
2026-04-30 12:59 49.08526 3.47491 34180 ft 492 kts 327°
2026-04-30 13:00 49.14029 3.41385 34179 ft 493 kts 327°
2026-04-30 13:00 49.19546 3.35247 34185 ft 493 kts 327°
2026-04-30 13:01 49.25089 3.29061 34189 ft 493 kts 326°
2026-04-30 13:01 49.30599 3.22894 34184 ft 493 kts 326°
2026-04-30 13:02 49.36132 3.16684 34189 ft 495 kts 326°
2026-04-30 13:02 49.41664 3.10458 34195 ft 494 kts 326°
2026-04-30 13:03 49.47203 3.04206 34189 ft 494 kts 326°
2026-04-30 13:03 49.52742 2.97936 34193 ft 495 kts 326°
2026-04-30 13:04 49.58242 2.91691 34199 ft 493 kts 326°
2026-04-30 13:04 49.63745 2.85426 34202 ft 494 kts 326°
2026-04-30 13:05 49.69293 2.79092 34195 ft 495 kts 326°
2026-04-30 13:06 49.77587 2.69587 34195 ft 495 kts 326°
2026-04-30 13:06 49.83159 2.63383 34200 ft 497 kts 327°
2026-04-30 13:07 49.88765 2.57174 34202 ft 496 kts 327°
2026-04-30 13:07 49.94368 2.50943 34209 ft 497 kts 327°
2026-04-30 13:08 49.99939 2.44723 34212 ft 495 kts 327°
2026-04-30 13:08 50.05519 2.38475 34205 ft 497 kts 327°
2026-04-30 13:09 50.11124 2.32178 34193 ft 498 kts 326°
2026-04-30 13:09 50.16742 2.25847 34196 ft 498 kts 326°
2026-04-30 13:10 50.22341 2.19517 34194 ft 498 kts 326°
2026-04-30 13:10 50.27900 2.13214 34192 ft 497 kts 326°
2026-04-30 13:11 50.33479 2.06871 34198 ft 497 kts 325°
2026-04-30 13:11 50.38929 2.00298 34203 ft 498 kts 321°
2026-04-30 13:12 50.44167 1.93174 34192 ft 501 kts 320°
2026-04-30 13:12 50.49396 1.86028 34198 ft 498 kts 320°
2026-04-30 13:13 50.57241 1.75275 34205 ft 501 kts 320°
2026-04-30 13:14 50.65046 1.64532 34208 ft 500 kts 320°
2026-04-30 13:14 50.72884 1.53686 34212 ft 500 kts 320°
2026-04-30 13:15 50.80683 1.42843 34218 ft 500 kts 320°
2026-04-30 13:16 50.85891 1.35583 34217 ft 500 kts 320°
2026-04-30 13:16 50.91090 1.28313 34222 ft 500 kts 319°
2026-04-30 13:17 50.98871 1.17388 34226 ft 501 kts 319°
2026-04-30 13:18 51.06564 1.06537 34229 ft 503 kts 319°
2026-04-30 13:18 51.14094 0.94953 34227 ft 501 kts 316°
2026-04-30 13:19 51.19048 0.87208 34229 ft 502 kts 316°
2026-04-30 13:19 51.24028 0.79419 34224 ft 502 kts 316°
2026-04-30 13:20 51.28994 0.71636 34226 ft 504 kts 316°
2026-04-30 13:20 51.33972 0.63815 34236 ft 503 kts 316°
2026-04-30 13:21 51.38965 0.55950 34234 ft 503 kts 316°
2026-04-30 13:22 51.46401 0.44192 34239 ft 505 kts 316°
2026-04-30 13:22 51.53836 0.32378 34238 ft 504 kts 315°
2026-04-30 13:23 51.61296 0.20467 34237 ft 505 kts 315°
2026-04-30 13:24 51.71173 0.04418 34232 ft 507 kts 314°
2026-04-30 13:25 51.80996 -0.11793 34235 ft 504 kts 314°
2026-04-30 13:26 51.93219 -0.32101 34235 ft 506 kts 314°
2026-04-30 13:28 52.05400 -0.52504 34236 ft 505 kts 314°
2026-04-30 13:28 52.12684 -0.64787 34225 ft 507 kts 314°